TimeEDT,TemperatureF,Dew PointF,Humidity,Sea Level PressureIn,VisibilityMPH,Wind Direction,Wind SpeedMPH,Gust SpeedMPH,PrecipitationIn,Events,Conditions,WindDirDegrees,DateUTC
12:52 AM,57.0,55.9,96,30.08,7.0,Calm,Calm,-,N/A,,Clear,0,2013-08-19 04:52:00
1:35 AM,55.9,54.0,93,30.08,1.8,Calm,Calm,-,N/A,,Clear,0,2013-08-19 05:35:00
1:52 AM,55.0,53.1,93,30.08,2.0,Calm,Calm,-,N/A,,Clear,0,2013-08-19 05:52:00
2:03 AM,55.0,53.1,93,30.07,0.8,Calm,Calm,-,N/A,,Clear,0,2013-08-19 06:03:00
2:22 AM,54.0,53.1,97,30.07,1.5,Calm,Calm,-,N/A,,Clear,0,2013-08-19 06:22:00
2:28 AM,54.0,53.1,97,30.07,3.0,Calm,Calm,-,N/A,,Clear,0,2013-08-19 06:28:00
2:52 AM,54.0,53.1,97,30.06,8.0,Calm,Calm,-,N/A,,Clear,0,2013-08-19 06:52:00
3:52 AM,55.0,53.1,93,30.06,10.0,Calm,Calm,-,N/A,,Clear,0,2013-08-19 07:52:00
4:52 AM,55.0,53.1,93,30.06,10.0,Calm,Calm,-,N/A,,Clear,0,2013-08-19 08:52:00
5:52 AM,55.0,53.1,93,30.06,10.0,Calm,Calm,-,N/A,,Clear,0,2013-08-19 09:52:00
6:52 AM,57.9,55.9,93,30.06,10.0,Calm,Calm,-,N/A,,Clear,0,2013-08-19 10:52:00
7:52 AM,66.0,59.0,78,30.05,10.0,West,4.6,-,N/A,,Clear,280,2013-08-19 11:52:00
8:52 AM,70.0,60.1,71,30.04,10.0,West,6.9,-,N/A,,Clear,270,2013-08-19 12:52:00
9:52 AM,73.0,61.0,66,30.03,10.0,WNW,4.6,-,N/A,,Clear,290,2013-08-19 13:52:00
10:52 AM,78.1,61.0,56,30.01,10.0,Variable,6.9,-,N/A,,Clear,0,2013-08-19 14:52:00
11:52 AM,80.1,59.0,48,30.01,10.0,WNW,8.1,-,N/A,,Clear,290,2013-08-19 15:52:00
12:52 PM,81.0,59.0,47,30.00,10.0,West,6.9,-,N/A,,Clear,270,2013-08-19 16:52:00
1:52 PM,81.0,57.9,45,29.98,10.0,Variable,4.6,-,N/A,,Clear,0,2013-08-19 17:52:00
2:52 PM,81.0,55.9,42,29.97,10.0,West,5.8,-,N/A,,Clear,280,2013-08-19 18:52:00
3:52 PM,80.1,59.0,48,29.97,10.0,West,6.9,-,N/A,,Clear,260,2013-08-19 19:52:00
4:52 PM,78.1,57.9,50,29.96,10.0,West,4.6,-,N/A,,Clear,260,2013-08-19 20:52:00
5:52 PM,75.9,61.0,60,29.96,10.0,WSW,3.5,-,N/A,,Clear,240,2013-08-19 21:52:00
6:52 PM,73.9,61.0,64,29.98,10.0,WSW,3.5,-,N/A,,Clear,250,2013-08-19 22:52:00
7:52 PM,72.0,62.1,71,29.99,10.0,Calm,Calm,-,N/A,,Clear,0,2013-08-19 23:52:00
8:52 PM,71.1,62.1,73,29.99,10.0,West,3.5,-,N/A,,Clear,260,2013-08-20 00:52:00
9:52 PM,72.0,61.0,68,29.99,10.0,WSW,4.6,-,N/A,,Clear,250,2013-08-20 01:52:00
10:52 PM,71.1,61.0,70,29.99,10.0,WSW,3.5,-,N/A,,Clear,240,2013-08-20 02:52:00
11:52 PM,70.0,62.1,76,30.00,10.0,West,3.5,-,N/A,,Clear,270,2013-08-20 03:52:00